Regional Weather Roundup
Issued by NWS

Home | Current Version | Previous Version | Graphics & Text | Print | Product List | Glossary On
Versions: 1 2 3 4 5 6 7 8 9 10 11 12 13 14 15 16 17 18 19 20 21 22 23 24 25 26 27 28 29 30 31 32 33 34 35 36 37 38 39 40 41 42 43 44 45 46 47 48 49 50
000
ASUS43 KLSX 161159
RWRMO

WEATHER SUMMARY FOR MISSOURI
NATIONAL WEATHER SERVICE SPRINGFIELD MO
700 AM CDT WED APR 16 2014

NOTE: "FAIR" INDICATES FEW OR NO CLOUDS BELOW 12,000 FEET WITH NO
       SIGNIFICANT WEATHER AND/OR OBSTRUCTIONS TO VISIBILITY.
       CURRENT SKY AND/OR WEATHER CONDITIONS ARE NOT AVAILABLE FOR
       CHILLICOTHE AND FARMINGTON.

MOZ001>031-035>038-043-044-053-054-161300-
...NORTHERN AND WESTERN MISSOURI...

CITY           SKY/WX    TMP DP  RH WIND       PRES   REMARKS
KANSAS CTY INT PTCLDY    45  25  45 S20       29.93S
6HR MIN TEMP:  44; 6HR MAX TEMP:  47;

KANSAS C DTWN  CLEAR     46  26  45 S17G24    29.96S
6HR MIN TEMP:  46; 6HR MAX TEMP:  49;

LEE`S SUMMIT   CLEAR     43  26  51 S14G23    29.98S
6HR MIN TEMP:  42; 6HR MAX TEMP:  45;

ST JOSEPH      CLEAR     45  26  47 S17G28    29.91S
6HR MIN TEMP:  45; 6HR MAX TEMP:  46;

CHILLICOTHE      N/A     42  25  50 SE9       30.00F
6HR MIN TEMP:  42; 6HR MAX TEMP:  44;

KIRKSVILLE     CLEAR     36  25  64 S13       30.05S WCI  27
6HR MIN TEMP:  35; 6HR MAX TEMP:  39;


$$
MOZ066>068-077>081-088>096-101>105-161300-
...SOUTHWEST MISSOURI...

CITY           SKY/WX    TMP DP  RH WIND       PRES   REMARKS
SPRINGFIELD    MOCLDY    39  30  70 SE14      30.09R
6HR MIN TEMP:  39; 6HR MAX TEMP:  43;

JOPLIN         PTCLDY    43  27  53 S12       30.05R
6HR MIN TEMP:  43; 6HR MAX TEMP:  45;


$$
MOZ032>034-039>042-045>050-055>058-069>072-161300-
...CENTRAL MISSOURI...

CITY           SKY/WX    TMP DP  RH WIND       PRES   REMARKS
COLUMBIA       PTCLDY    37  26  64 SE15      30.11R WCI  28
6HR MIN TEMP:  36; 6HR MAX TEMP:  38;

JEFFERSON CITY PTCLDY    39  27  62 SE9       30.14R
6HR MIN TEMP:  37; 6HR MAX TEMP:  41;

ROLLA          MOCLDY    37  26  64 S14       30.14R WCI  28
6HR MIN TEMP:  36; 6HR MAX TEMP:  39;

SEDALIA        CLEAR     42  26  53 S17       30.06R
6HR MIN TEMP:  40; 6HR MAX TEMP:  43;

OSAGE BEACH    MOCLDY    39  27  60 S12G17    30.13R

$$
MOZ051-052-059>065-161300-
...EAST CENTRAL MISSOURI...

CITY           SKY/WX    TMP DP  RH WIND       PRES   REMARKS
ST LOUIS INTL  MOCLDY    39  23  52 SE16G24   30.23R
6HR MIN TEMP:  39; 6HR MAX TEMP:  42;

SPIRIT OF STL  PTCLDY    38  21  50 VRB7      30.21R
6HR MIN TEMP:  37; 6HR MAX TEMP:  39;

ST CHARLES     CLEAR     37  25  61 S13       30.22R WCI  29
6HR MIN TEMP:  34; 6HR MAX TEMP:  37;


$$
MOZ072>076-082>087-097>100-106>115-161300-
...SOUTH CENTRAL AND SOUTHEAST MISSOURI...

CITY           SKY/WX    TMP DP  RH WIND       PRES   REMARKS
CAPE GIRARDEAU CLEAR     34  27  75 SE5       30.29R WCI  30
6HR MIN TEMP:  32; 6HR MAX TEMP:  36;

FARMINGTON     PTCLDY    34  25  69 SE7       30.25R WCI  28
6HR MIN TEMP:  32; 6HR MAX TEMP:  34;

POPLAR BLUFF   CLEAR     36  27  69 MISG      30.27R
6HR MIN TEMP:  35; 6HR MAX TEMP:  40;

WEST PLAINS    CLEAR     35  27  72 SE7       30.19R WCI  29
6HR MIN TEMP:  34; 6HR MAX TEMP:  40;


$$



USA.gov is the U.S. government's official web portal to all federal, state and local government web resources and services.